Погода в Сома-Бэй

Египет     26°50′55″N   33°59′04″E
темп.,
°C
ветер,
м/с
пор.,
м/с
влажн.,
%
обл.,
%
осадки,
мм/ч
давл.,
гПа
погр.,
м
18 августа, чт
чт1823:00+32ссз79476 0.0 100291
02:00+31ссз58490 0.0 100279
05:00+29ссз813530 0.0 1002242
08:00+31ссз79480 0.0 1003137
11:00+31ссв89550 0.0 1003114
14:00+31ссв79580 0.0 1001128
17:00+32с68490 0.0 100176
20:00+32сз57450 0.0 100250
19 августа, пт
пт1923:00+32сз57440 0.0 100265
02:00+32з22470 0.0 100213
05:00+29ссз712460 0.0 1003190
08:00+32ссз79450 0.0 1004118
11:00+31ссв79570 0.0 1004121
14:00+32ссв67552 0.0 100299
17:00+32с45471 0.0 100246
20:00+32зсз44455 0.0 100326
20 августа, сб
сб2023:00+32сз46435 0.0 100463
02:00+31з23445 0.0 100312
05:00+31з22445 0.0 100411
08:00+31вюв11510 0.0 100571
11:00+31всв44530 0.0 1005221
14:00+31св44550 0.0 100376
17:00+32ссв34525 0.0 100331
20:00+32юз22495 0.0 100412
21 августа, вс
вс2123:00+32зюз34445 0.0 100415
02:00+32зюз34440 0.0 100313
05:00+30ссз611510 0.0 1004125
08:00+32ссз55500 0.0 100477
11:00+30св79660 0.0 1004129
14:00+31св45600 0.0 100276
17:00+30юв11620 0.0 100228
20:00+31зюз22510 0.0 100312
22 августа, пн
пн2223:00+32зюз22450 0.0 100311
02:00+32юз22460 0.0 100211
05:00+29с67550 0.0 1004104
08:00+30с45530 0.0 100582
11:00+30ссв78630 0.0 1005140
14:00+31ссв45600 0.0 100485
17:00+31ссв33590 0.0 100446
20:00+31з12550 0.0 100511